GFSNE_850_thetae_003.txt.gz
Theta_e
291 292 292 293 293 294 294 294 293 294 293 293 293 293 295 293 295 293 292 293 294 295 295 297 297 297 298 299 305 304 303 305 308 310 309 310 308 310
291 291 291 291 292 292 292 292 292 291 292 292 292 292 292 293 292 292 293 292 292 294 294 294 295 294 298 298 299 300 297 302 306 306 309 311 312 312
290 290 290 290 291 291 290 290 290 291 291 290 291 291 291 291 291 291 291 291 292 292 292 293 293 294 294 296 295 295 297 302 305 306 308 311 314 314
289 290 290 290 290 290 289 289 289 289 289 290 290 289 290 290 290 290 289 290 291 291 292 292 293 294 295 295 297 299 297 300 303 304 303 309 313 314
288 289 289 289 289 288 288 288 287 288 289 289 288 289 289 289 290 289 289 289 290 290 291 291 292 293 294 296 296 298 300 301 300 300 302 304 310 312
288 288 288 288 288 287 287 287 288 288 288 288 288 289 289 289 289 289 288 288 287 288 288 290 291 292 294 295 294 293 296 293 295 296 303 305 307 310
287 288 288 288 287 287 287 288 288 288 288 288 288 288 288 287 287 286 286 287 287 288 289 289 290 290 291 292 292 293 295 295 296 299 301 303 305 308
287 287 287 287 287 287 288 288 288 287 288 288 289 287 286 286 285 286 286 287 287 287 288 288 289 290 291 292 292 295 294 296 297 297 299 301 302 303
287 287 287 287 287 287 287 287 287 287 287 287 286 285 284 285 285 286 286 285 285 286 287 288 290 290 291 290 291 292 293 293 295 297 299 300 302 303
286 286 286 286 286 287 287 287 286 285 285 285 285 284 284 285 285 284 285 285 285 286 287 288 287 290 288 289 288 290 291 292 294 296 298 300 302 303
286 286 286 287 286 288 287 286 284 283 284 284 284 284 284 284 284 284 284 285 285 285 285 285 286 287 286 288 288 289 292 293 293 294 296 298 300 301
285 285 286 286 287 286 285 284 283 283 284 283 283 282 282 282 283 283 283 284 284 284 284 284 285 286 287 287 289 288 287 289 291 295 300 301 301 302
285 285 285 285 286 285 284 283 283 284 283 282 281 281 282 282 282 282 282 282 283 283 283 284 285 285 286 286 286 286 286 288 292 297 300 305 305 306
285 285 285 285 284 283 283 283 283 283 281 281 281 282 282 282 281 281 282 283 283 283 284 285 285 285 286 286 285 285 286 289 292 296 301 304 305 307
284 284 285 284 283 282 281 282 282 280 281 281 281 281 281 281 281 282 282 283 283 284 285 285 286 286 285 284 284 284 286 290 293 297 300 302 302 303
284 285 283 282 282 281 280 280 280 280 281 281 281 280 280 281 281 282 283 284 284 285 285 284 284 284 284 284 285 286 288 289 293 296 297 297 298 299
284 282 281 281 280 280 280 280 280 280 280 280 280 280 280 281 281 283 283 285 285 284 283 283 283 283 284 285 286 288 289 290 292 294 297 297 298 298
282 281 280 280 280 279 279 279 279 280 279 279 279 280 280 281 282 283 284 285 284 284 283 282 282 284 285 285 286 287 289 290 292 294 294 295 294 295
280 280 280 279 279 279 279 279 279 279 279 279 279 280 280 281 282 283 284 284 284 283 283 282 283 285 286 284 285 287 288 290 292 293 293 293 293 294
279 279 279 279 279 279 279 279 279 279 279 279 280 281 281 282 283 283 282 282 282 282 284 284 283 283 284 283 283 286 289 291 293 292 291 291 291 292
279 278 278 278 278 279 279 278 278 279 279 280 281 281 282 282 283 282 282 282 283 284 284 284 283 284 284 285 285 287 288 291 292 291 291 291 290 290
278 278 278 278 278 279 278 278 279 280 281 281 282 282 282 282 283 283 282 282 283 284 284 284 284 284 284 285 284 285 286 288 290 290 291 291 290 289
278 278 278 278 279 279 279 279 280 281 282 282 282 282 282 282 283 283 283 284 284 284 285 285 284 284 284 284 283 283 284 284 285 285 286 288 288 290

GFSNE_850_thetae_006.txt.gz
Theta_e
290 290 290 290 290 291 291 291 292 292 291 291 290 290 291 290 290 291 290 291 291 291 292 293 293 294 294 294 295 295 296 298 298 300 304 304 308 310
289 289 289 289 290 290 290 290 290 290 290 289 290 289 288 289 289 289 289 290 290 291 291 291 292 293 293 294 295 295 297 297 298 298 301 304 307 310
288 288 288 288 289 289 289 289 289 289 289 288 288 287 288 288 287 288 289 289 289 290 290 290 290 291 292 292 293 294 295 296 297 299 300 302 306 308
287 287 287 288 288 288 289 288 288 288 287 287 288 288 287 287 288 288 288 289 288 288 288 289 288 289 290 291 291 292 294 295 297 299 300 302 302 304
286 286 286 287 287 288 288 288 287 287 287 288 287 287 288 288 287 288 288 287 286 286 286 287 288 288 290 291 291 292 294 294 295 295 296 299 299 302
286 285 286 287 288 288 288 288 288 288 288 288 288 288 287 287 287 286 285 285 285 285 285 287 287 287 288 289 290 290 292 292 293 295 297 297 299 300
285 286 287 287 287 288 288 288 288 287 288 288 287 287 287 287 285 285 284 284 284 285 286 284 285 285 286 287 289 290 292 293 293 294 295 296 297 299
285 286 286 286 286 287 287 287 287 288 287 287 286 285 284 284 285 284 284 284 285 285 284 284 285 286 287 287 289 291 292 291 292 293 294 296 296 296
285 285 286 286 286 285 286 287 287 287 286 285 284 283 284 284 284 284 285 284 284 283 284 284 285 286 285 285 287 288 289 290 290 292 293 293 295 298
285 285 285 285 285 286 287 287 286 285 284 283 283 284 284 284 284 283 283 283 283 284 284 284 285 284 284 284 285 286 287 289 291 290 291 292 294 296
285 285 285 285 286 287 287 286 285 284 283 283 284 284 283 282 283 283 283 283 283 283 282 283 283 283 284 284 285 286 288 288 288 288 289 290 293 295
285 285 285 285 285 286 286 285 284 283 283 284 282 281 281 281 282 282 282 282 282 282 282 282 283 283 284 285 286 285 286 285 286 288 290 292 294 295
285 285 284 284 285 285 284 283 283 283 283 282 280 281 281 281 281 281 281 281 281 282 283 283 283 284 284 284 285 286 285 286 288 291 294 297 300 302
284 284 283 285 284 283 283 282 283 282 280 280 280 281 281 280 280 281 281 282 283 283 284 284 284 284 285 285 285 285 285 288 290 291 295 300 303 304
284 283 284 283 282 281 281 281 281 280 280 280 280 280 280 280 280 281 282 283 284 284 284 284 284 284 284 284 284 285 286 289 291 293 296 300 301 304
283 284 282 281 280 280 279 279 279 279 280 280 280 279 280 280 280 281 282 283 284 285 283 283 282 283 283 284 286 287 288 288 291 294 295 296 298 301
284 282 280 279 279 279 279 279 279 279 279 279 279 279 280 280 281 282 283 283 283 284 283 283 283 283 284 284 285 287 288 290 292 294 295 296 296 297
281 280 279 279 279 279 278 279 279 279 279 279 279 280 280 281 282 282 283 283 282 283 283 282 283 285 285 285 285 287 290 291 292 294 294 295 296 296
279 279 279 278 278 278 278 279 279 279 279 280 280 280 281 282 282 282 283 283 282 283 284 283 283 284 284 284 286 287 290 291 293 294 293 294 294 294
278 278 278 278 278 278 278 278 278 279 280 280 281 282 282 282 282 282 283 283 282 283 284 284 284 284 284 283 285 287 290 292 293 293 293 293 294 294
278 278 277 278 278 278 278 278 279 279 280 282 282 282 282 282 282 282 283 283 283 284 284 284 284 285 285 286 286 287 289 291 292 293 293 293 292 292
277 277 278 278 278 278 278 279 279 281 282 283 283 283 283 282 282 283 283 283 284 284 284 284 284 285 287 287 286 287 288 289 290 291 292 291 291 291
277 277 278 278 279 279 279 279 281 281 282 283 283 283 283 283 284 284 284 284 285 285 285 284 284 284 285 285 286 286 287 289 290 290 289 290 291 291

GFSNE_850_thetae_009.txt.gz
Theta_e
290 289 289 288 288 287 288 289 289 290 289 289 289 288 288 287 287 288 288 287 288 289 290 291 291 292 292 293 292 293 294 295 295 296 296 299 300 300
289 288 288 287 287 286 287 288 289 288 289 288 288 288 287 287 287 287 287 287 287 288 289 290 291 290 291 290 292 291 292 294 294 295 296 298 299 301
288 287 287 287 286 286 286 287 288 288 288 287 287 287 287 287 286 287 287 287 287 288 289 288 288 289 288 289 290 291 291 292 292 293 294 297 298 300
287 287 287 286 285 286 287 287 287 287 287 287 287 287 287 287 287 287 287 286 287 286 286 286 286 287 287 288 289 290 291 292 293 293 294 296 296 296
287 287 286 285 286 287 287 287 287 288 288 287 288 287 287 287 287 286 286 285 285 285 285 284 285 286 287 288 287 288 289 291 291 292 293 294 295 296
287 286 285 285 286 287 287 287 288 287 287 287 287 288 287 286 285 284 283 284 284 284 284 284 285 286 285 285 286 287 288 289 290 291 292 294 294 295
286 286 285 285 286 286 287 287 286 286 287 288 288 286 285 284 283 283 284 284 284 284 284 284 283 283 283 284 285 286 287 289 290 290 292 293 294 294
286 285 285 285 285 285 285 286 287 287 288 287 287 285 284 283 283 283 284 284 283 283 283 283 283 283 283 283 285 286 286 287 289 290 290 292 292 293
286 285 285 285 285 285 285 286 286 286 286 286 284 284 283 283 285 284 282 282 283 283 282 282 282 282 282 283 284 285 286 286 287 288 289 290 291 292
285 285 285 285 285 285 286 286 286 285 284 284 283 283 284 284 282 282 282 282 282 282 282 282 282 282 282 282 283 284 285 286 286 288 290 290 291 291
285 285 285 284 284 285 285 286 284 283 282 283 283 283 282 282 282 282 282 282 282 281 281 281 281 282 282 283 284 285 285 286 287 287 288 288 289 290
284 284 284 284 284 285 286 284 282 282 283 283 281 281 280 280 281 281 280 280 281 281 282 281 281 282 283 283 284 284 285 285 285 286 286 287 288 290
284 284 283 283 285 284 284 282 282 283 282 281 280 280 280 280 280 280 280 280 280 281 283 282 283 283 283 283 284 284 284 284 285 288 289 290 290 290
284 283 283 285 283 282 281 281 282 281 280 279 280 280 280 280 280 281 281 282 282 282 284 284 283 283 282 283 283 284 286 288 289 290 291 292 294 296
283 284 283 282 281 280 280 280 280 279 279 280 280 279 279 280 281 281 282 283 283 283 283 283 283 283 282 282 283 285 286 289 290 291 293 295 297 299
283 282 281 280 279 279 279 279 279 279 279 279 279 279 280 280 281 281 282 283 283 283 284 283 282 282 282 283 284 285 287 288 291 293 293 295 297 299
282 281 279 278 278 278 279 279 279 279 279 279 279 280 280 281 281 282 282 283 282 283 284 283 284 285 285 284 285 286 289 291 292 293 293 294 296 298
280 278 278 278 278 278 278 278 278 279 279 280 280 281 281 281 281 282 282 282 283 283 284 283 284 285 285 285 286 287 290 291 293 293 293 294 295 296
278 278 278 278 278 278 278 278 278 279 279 280 281 281 282 282 282 282 282 283 283 284 284 284 284 284 285 284 287 288 291 292 293 293 292 292 292 294
278 278 277 278 278 278 278 278 279 280 280 281 282 283 282 282 282 282 283 283 284 284 284 284 285 285 285 285 286 288 291 293 293 292 292 293 293 294
277 277 277 278 278 279 279 279 279 280 281 282 283 284 284 283 283 283 283 284 284 285 284 284 285 286 287 288 288 290 291 291 292 292 293 292 292 293
277 277 278 279 279 279 279 279 280 282 282 283 284 285 284 284 283 284 284 284 285 284 284 284 285 287 288 288 288 289 290 291 292 292 292 292 292 292
277 277 278 280 280 280 280 281 281 283 283 284 285 285 285 284 284 285 285 285 285 285 285 284 284 286 287 287 288 288 290 290 291 291 291 291 292 292

GFSNE_850_thetae_015.txt.gz
Theta_e
290 289 288 288 287 287 286 285 285 285 286 286 286 286 287 287 287 287 287 286 287 288 289 289 290 289 289 290 291 291 292 293 294 294 295 295 296 295
289 288 288 287 287 286 286 285 285 285 286 286 286 286 286 286 286 286 286 287 287 288 288 288 288 287 288 288 289 290 290 291 292 292 293 294 294 294
288 288 287 287 286 286 285 285 285 285 286 286 286 285 285 285 285 286 286 286 286 286 286 286 286 286 287 288 289 289 289 290 290 290 291 291 293 294
287 287 286 286 286 285 285 285 285 285 286 286 285 285 285 286 286 286 286 285 284 284 284 284 285 286 286 287 287 287 287 288 289 289 290 290 291 292
286 286 286 286 285 285 285 285 285 286 286 285 285 286 286 286 285 286 285 283 283 283 283 284 284 285 285 285 286 287 287 288 288 288 288 289 290 290
286 286 285 285 285 285 285 285 286 285 285 285 286 286 285 285 284 283 283 282 283 283 283 283 283 283 283 284 285 285 285 285 286 286 287 288 288 289
285 285 284 284 284 285 285 285 284 285 286 286 285 285 283 283 282 282 282 283 283 282 281 282 282 282 282 282 282 283 283 284 285 286 287 287 288 289
284 284 283 283 284 284 284 284 285 286 286 287 283 283 282 282 282 283 283 282 282 282 282 281 281 281 281 281 282 283 284 285 286 286 286 287 288 289
284 283 283 284 283 283 284 284 286 284 284 283 282 282 282 282 282 282 282 281 281 281 281 281 281 281 282 282 282 283 283 284 285 286 286 286 287 288
284 284 284 283 283 284 285 285 283 282 282 281 282 282 283 282 282 282 281 281 281 281 280 280 281 281 282 282 283 283 283 284 285 286 286 287 288 288
284 285 284 283 283 285 285 283 282 282 281 282 282 282 281 281 281 282 281 280 280 280 280 280 281 281 281 282 283 283 283 284 285 285 286 287 287 287
285 283 283 283 284 284 283 282 282 281 283 282 281 281 282 282 281 281 281 280 280 280 280 280 280 281 282 282 282 283 283 284 283 284 285 286 287 287
283 283 282 282 284 283 282 281 281 283 282 281 281 281 281 282 282 282 281 280 280 280 282 281 281 282 281 282 282 283 283 285 286 287 289 289 289 288
283 282 282 283 282 281 280 281 282 281 280 280 280 280 281 282 282 282 282 282 282 282 283 283 282 282 283 282 283 285 286 287 288 290 289 290 290 290
282 282 281 281 280 280 281 280 280 280 279 279 279 281 282 282 282 282 283 283 283 284 284 284 283 284 283 283 284 286 286 289 290 290 291 291 291 291
282 281 280 279 280 280 281 281 280 279 279 279 280 282 282 282 283 282 282 283 283 284 285 284 284 285 286 287 287 287 289 286 291 291 291 292 292 292
281 280 279 279 280 280 281 281 280 280 280 281 281 282 283 282 283 283 283 283 283 283 284 285 286 287 288 288 288 288 289 291 292 292 291 291 292 293
279 279 279 279 279 279 280 280 281 281 281 282 282 283 282 282 283 284 284 283 283 284 284 285 286 288 290 290 289 289 289 291 292 292 292 291 291 296
279 279 278 278 279 280 280 280 280 281 282 282 283 283 283 284 284 284 284 284 284 284 285 286 286 286 286 287 290 290 290 290 293 292 292 291 291 296
278 278 278 279 280 280 280 281 282 282 283 283 284 284 284 284 284 284 284 284 284 285 285 286 286 287 287 287 287 291 291 290 291 292 292 292 291 296
278 279 279 280 281 281 281 282 282 283 283 284 285 285 285 285 285 285 285 285 285 285 285 285 286 288 289 290 290 291 291 291 291 291 290 291 291 293
278 279 280 281 281 282 282 283 283 285 285 286 285 285 285 285 285 285 285 285 286 285 285 285 286 287 289 289 288 290 291 291 291 291 290 290 289 290
278 279 281 282 282 282 283 284 284 285 286 286 286 286 286 286 286 286 286 286 286 285 285 286 286 286 287 289 289 290 291 291 291 290 291 290 290 292

GFSNE_850_thetae_018.txt.gz
Theta_e
290 289 289 288 288 287 287 286 285 284 285 285 285 285 285 285 285 286 286 286 287 288 288 289 290 290 291 291 290 290 290 291 292 292 294 294 295 296
290 289 288 287 287 286 286 285 285 285 285 285 285 285 285 284 285 285 285 286 286 286 287 288 288 288 289 289 288 288 289 289 291 292 292 293 294 295
290 288 288 287 286 286 285 285 285 285 285 285 285 285 284 284 285 285 285 285 285 286 286 287 287 286 286 287 287 288 289 289 290 290 291 291 292 293
288 287 287 286 286 285 285 285 285 285 285 285 284 284 284 285 285 285 285 284 283 283 284 284 285 285 286 286 287 287 287 288 288 288 289 290 291 291
287 286 285 285 284 284 284 285 285 285 285 284 284 285 285 285 285 283 283 282 282 282 283 283 284 284 285 285 285 286 287 287 287 287 288 289 289 290
286 285 284 284 283 284 284 285 285 284 284 284 285 285 285 284 283 282 281 282 282 282 282 282 283 283 283 283 284 284 284 285 285 286 287 287 287 288
284 284 284 283 284 285 285 284 284 284 285 286 284 284 283 282 281 282 282 282 282 282 282 282 282 281 281 282 282 282 283 283 284 285 286 287 287 287
284 284 283 284 284 284 283 284 285 286 284 284 283 282 281 281 282 282 282 282 282 282 282 281 281 281 281 281 282 282 283 284 285 286 286 286 287 288
284 284 284 284 283 283 283 284 286 284 283 282 281 281 282 282 283 282 281 281 281 281 281 281 281 281 281 282 282 282 283 284 285 285 286 286 286 287
284 284 284 283 283 284 284 285 283 283 282 281 282 282 283 282 282 282 282 281 281 281 280 280 281 281 281 282 283 283 283 284 285 285 285 286 287 287
284 284 283 283 283 284 285 284 282 282 281 282 282 282 281 281 281 282 281 280 280 281 281 280 281 280 281 282 283 282 283 284 285 285 286 286 286 287
284 283 283 283 284 284 283 282 282 281 283 282 281 282 282 283 283 282 281 280 280 280 283 280 281 281 281 282 283 283 284 286 286 285 285 286 286 287
283 283 282 282 284 283 282 281 281 283 282 281 282 282 282 283 283 283 282 281 280 280 283 281 281 282 281 281 284 286 286 287 288 288 289 289 289 288
283 282 282 283 282 281 280 280 282 281 281 281 281 281 282 283 283 283 283 283 283 282 284 284 282 283 283 283 283 287 288 289 289 291 290 290 290 290
282 282 281 280 280 280 281 280 281 281 281 280 280 282 283 283 284 284 284 284 284 284 285 284 284 284 284 284 284 289 288 288 290 289 291 291 291 291
282 281 280 280 280 281 281 282 281 281 279 280 281 283 283 284 284 284 283 284 284 285 285 285 285 286 287 289 289 289 289 287 289 290 291 291 291 291
281 280 279 280 280 281 282 282 282 282 281 282 282 283 284 283 284 284 284 284 283 284 285 287 287 288 289 290 290 290 289 289 290 290 291 291 291 292
280 279 279 279 280 281 281 281 282 282 282 283 283 284 283 283 283 284 284 284 284 284 285 285 287 288 290 291 290 289 289 289 290 290 291 290 291 296
279 279 279 279 280 281 281 281 282 283 283 283 284 284 283 284 284 284 284 284 285 284 285 285 286 286 285 286 290 291 290 289 289 290 290 290 292 299
279 278 279 280 281 281 281 282 283 284 284 284 285 284 284 283 284 285 285 285 285 285 285 285 286 286 286 287 287 291 290 290 289 289 290 291 295 299
279 279 279 281 281 281 282 283 283 284 284 284 285 285 284 284 285 285 285 286 285 285 285 285 286 286 288 289 290 290 291 290 290 289 289 291 292 296
279 279 281 281 282 282 283 284 285 285 285 285 285 285 285 285 285 285 286 286 286 285 285 286 286 287 288 289 289 290 291 291 291 290 290 289 290 290
279 280 281 282 283 283 284 285 285 286 285 285 285 286 286 286 286 286 286 286 286 286 285 286 287 287 287 288 289 290 290 291 290 290 290 291 290 291